TimeIST,TemperatureF,Dew PointF,Humidity,Sea Level PressureIn,VisibilityMPH,Wind Direction,Wind SpeedMPH,Gust SpeedMPH,PrecipitationIn,Events,Conditions,WindDirDegrees,DateUTC
12:00 AM,75.2,39.2,27,30.04,1.9,ENE,10.4,-,N/A,,Haze,70,2013-03-15 18:30:00
1:00 AM,68.0,39.2,35,30.04,1.9,East,5.8,-,N/A,,Haze,100,2013-03-15 19:30:00
2:00 AM,69.8,41.0,35,30.04,1.9,ENE,4.6,-,N/A,,Haze,60,2013-03-15 20:30:00
2:30 AM,71,41,22,29.98,1,NE,4.6,,,,Haze,50,2013-03-15 21:00:00
3:00 AM,69.8,42.8,38,30.01,1.9,NE,4.6,-,N/A,,Haze,40,2013-03-15 21:30:00
4:00 AM,69.8,44.6,40,30.01,1.9,ENE,6.9,-,N/A,,Haze,70,2013-03-15 22:30:00
5:00 AM,69.8,46.4,43,30.01,1.9,East,8.1,-,N/A,,Haze,80,2013-03-15 23:30:00
5:30 AM,68,45,32,29.98,1,East,4.6,,,,Haze,90,2013-03-16 00:00:00
6:00 AM,66.2,48.2,52,30.04,1.9,East,5.8,-,N/A,,Haze,90,2013-03-16 00:30:00
7:00 AM,62.6,48.2,59,30.06,1.9,Calm,Calm,-,N/A,,Haze,0,2013-03-16 01:30:00
8:00 AM,68.0,50.0,52,30.09,1.9,East,4.6,-,N/A,,Haze,100,2013-03-16 02:30:00
8:30 AM,71,52,40,30.04,1,East,4.6,,,,Haze,90,2013-03-16 03:00:00
9:00 AM,71.6,51.8,50,30.09,2.5,East,9.2,-,N/A,,Haze,90,2013-03-16 03:30:00
10:00 AM,77.0,51.8,41,30.12,2.5,ESE,8.1,-,N/A,,Haze,110,2013-03-16 04:30:00
11:00 AM,78.8,48.2,34,30.12,2.5,SE,9.2,-,N/A,,Haze,130,2013-03-16 05:30:00
1:00 PM,84.2,44.6,25,30.06,3.1,ESE,9.2,-,N/A,,Haze,120,2013-03-16 07:30:00
2:00 PM,86.0,41.0,20,30.01,3.1,Variable,5.8,-,N/A,,Haze,0,2013-03-16 08:30:00
2:30 PM,88,38,9,29.93,2,SE,4.6,,,,Haze,140,2013-03-16 09:00:00
3:00 PM,87.8,39.2,18,30.01,3.1,Variable,5.8,-,N/A,,Haze,0,2013-03-16 09:30:00
4:00 PM,86.0,39.2,19,29.98,3.1,SE,5.8,-,N/A,,Haze,130,2013-03-16 10:30:00
5:00 PM,86.0,39.2,19,29.98,3.1,Variable,2.3,-,N/A,,Haze,0,2013-03-16 11:30:00
5:30 PM,85,43,14,29.89,2,East,4.6,,,,Haze,90,2013-03-16 12:00:00
6:00 PM,84.2,39.2,20,29.98,2.5,East,5.8,-,N/A,,Haze,90,2013-03-16 12:30:00
7:30 PM,78.8,46.4,32,29.98,1.9,East,8.1,-,N/A,,Haze,90,2013-03-16 14:00:00
8:00 PM,78.8,46.4,32,30.01,1.9,SSE,9.2,-,N/A,,Haze,150,2013-03-16 14:30:00
8:30 PM,76,46,23,29.95,1,SE,9.2,,,,Haze,140,2013-03-16 15:00:00
9:00 PM,75.2,46.4,36,30.04,1.9,SSE,5.8,-,N/A,,Haze,150,2013-03-16 15:30:00
10:00 PM,71.6,48.2,43,30.06,1.9,SE,3.5,-,N/A,,Haze,130,2013-03-16 16:30:00
11:00 PM,71.6,48.2,43,30.06,1.9,Calm,Calm,-,N/A,,Haze,0,2013-03-16 17:30:00
11:30 PM,69,48,35,30.01,1,,3.5,,,,Haze,,2013-03-16 18:00:00